Location: *
(46.3500°N, 10.9000°E)
Time: 01:10:59
(UTC+00:00)

Transit 4A - All Passes

Search period start: 21 April 2021 00:00
Search period end: 01 May 2021 00:00
Orbit: 869 x 975 km, 66.8° (Epoch: 20 April)

Date Brightness Start Highest point End Pass type
(mag) Time Alt. Az. Time Alt. Az. Time Alt. Az.
21 Apr - 01:08:24 10° WNW 01:12:25 18° NNW 01:16:22 10° NNE visible
21 Apr - 04:47:02 10° NNW 04:50:42 16° NNE 04:54:21 10° ENE daylight
21 Apr - 06:32:39 10° NNW 06:38:29 54° NE 06:44:10 10° SE daylight
21 Apr - 08:19:32 10° NW 08:24:30 29° WSW 08:29:25 10° SSW daylight
21 Apr - 21:41:58 10° S 21:47:48 42° ESE 21:53:31 10° NE visible
21 Apr - 23:28:18 10° WSW 23:34:11 42° NW 23:39:57 10° NNE visible
22 Apr - 01:18:58 10° NW 01:22:14 15° NNW 01:25:28 10° N visible
22 Apr - 03:10:59 10° N 03:11:31 10° N 03:12:03 10° N visible
22 Apr - 04:56:09 10° NNW 05:00:29 20° NNE 05:04:44 10° E daylight
22 Apr - 06:41:56 10° NNW 06:47:52 75° NE 06:53:41 10° SE daylight
22 Apr - 08:29:27 10° WNW 08:33:32 20° WSW 08:37:34 10° SSW daylight
22 Apr - 21:50:52 10° SSW 21:56:59 61° ESE 22:03:00 10° NE visible
22 Apr - 23:38:13 10° WSW 23:43:43 32° NW 23:49:08 10° NNE visible
23 Apr - 01:29:40 10° NW 01:32:07 12° NNW 01:34:32 10° N visible
23 Apr - 03:19:57 10° N 03:21:30 11° N 03:23:01 10° NNE visible
23 Apr - 05:05:17 10° NNW 05:10:10 25° NE 05:14:57 10° E daylight
23 Apr - 06:51:16 10° NW 06:57:11 78° WSW 07:02:58 10° SSE daylight
23 Apr - 08:40:03 10° WNW 08:42:29 13° WSW 08:44:56 10° SW daylight
23 Apr - 20:17:13 10° SE 20:20:45 16° ESE 20:24:14 10° ENE visible
23 Apr - 22:00:00 10° SSW 22:06:15 85° ESE 22:12:23 10° NE visible
23 Apr - 23:48:19 10° W 23:53:21 25° NW 23:58:17 10° NNE visible
24 Apr - 01:40:31 10° NNW 01:42:03 11° N 01:43:35 10° N visible
24 Apr - 03:29:01 10° N 03:31:25 12° NNE 03:33:48 10° NE visible
24 Apr - 05:14:27 10° NNW 05:19:46 33° NE 05:24:59 10° ESE daylight
24 Apr - 07:00:41 10° NW 07:06:24 54° WSW 07:12:02 10° SSE daylight
24 Apr - 20:25:00 10° SSE 20:29:46 23° ESE 20:34:27 10° ENE visible
24 Apr - 22:09:22 10° SW 22:15:36 70° NW 22:21:41 10° NNE visible
24 Apr - 23:58:37 10° WNW 00:03:03 20° NNW 00:07:24 10° NNE visible
25 Apr - 01:51:35 10° N 01:52:01 10° N 01:52:28 10° N visible
25 Apr - 03:38:06 10° N 03:41:18 15° NNE 03:44:27 10° NE visible
25 Apr - 05:23:39 10° NNW 05:29:18 44° NE 05:34:50 10° ESE daylight
25 Apr - 07:10:13 10° NW 07:15:33 37° WSW 07:20:49 10° S daylight
25 Apr - 20:33:20 10° S 20:38:50 34° ESE 20:44:14 10° NE visible
25 Apr - 22:18:58 10° SW 22:25:00 51° NW 22:30:56 10° NNE visible
26 Apr - 00:09:05 10° WNW 00:12:49 16° NNW 00:16:31 10° NNE visible
26 Apr - 03:47:13 10° NNW 03:51:07 18° NNE 03:54:57 10° ENE daylight
26 Apr - 05:32:52 10° NNW 05:38:44 61° NE 05:44:28 10° SE daylight
26 Apr - 07:19:56 10° NW 07:24:38 25° WSW 07:29:17 10° SSW daylight
26 Apr - 20:42:02 10° S 20:47:59 48° ESE 20:53:49 10° NE visible
26 Apr - 22:28:45 10° WSW 22:34:30 38° NW 22:40:08 10° NNE visible
27 Apr - 00:19:43 10° NW 00:22:40 14° NNW 00:25:35 10° N visible
27 Apr - 02:11:09 10° N 02:11:59 10° N 02:12:50 10° NNE visible
27 Apr - 03:56:19 10° NNW 04:00:51 22° NE 04:05:17 10° E daylight
27 Apr - 05:42:10 10° NNW 05:48:06 84° ENE 05:53:55 10° SE daylight
27 Apr - 07:30:01 10° WNW 07:33:38 17° WSW 07:37:14 10° SW daylight
27 Apr - 19:09:51 10° ESE 19:11:55 12° E 19:13:57 10° E visible
27 Apr - 20:51:02 10° SSW 20:57:12 69° ESE 21:03:15 10° NE visible
27 Apr - 22:38:44 10° W 22:44:04 29° NW 22:49:18 10° NNE visible
28 Apr - 00:30:29 10° NW 00:32:35 12° NNW 00:34:39 10° N visible
28 Apr - 02:20:08 10° N 02:21:57 11° NNE 02:23:45 10° NNE visible
28 Apr - 04:05:28 10° NNW 04:10:31 28° NE 04:15:27 10° E daylight
28 Apr - 05:51:31 10° NW 05:57:23 69° WSW 06:03:08 10° SSE daylight
28 Apr - 07:41:20 10° W 07:42:34 11° W 07:43:49 10° WSW daylight
28 Apr - 19:16:51 10° SE 19:20:52 18° ESE 19:24:52 10° ENE visible
28 Apr - 21:00:15 10° SSW 21:06:29 86° WNW 21:12:36 10° NNE visible
28 Apr - 22:48:55 10° W 22:53:42 23° NW 22:58:26 10° NNE visible
29 Apr - 00:41:24 10° NNW 00:42:31 10° N 00:43:39 10° N visible
29 Apr - 02:29:11 10° N 02:31:52 13° NNE 02:34:30 10° NE visible
29 Apr - 04:14:38 10° NNW 04:20:05 36° NE 04:25:25 10° ESE daylight
29 Apr - 06:00:58 10° NW 06:06:35 47° WSW 06:12:06 10° S daylight
29 Apr - 19:24:51 10° SSE 19:29:55 27° ESE 19:34:53 10° NE visible
29 Apr - 21:09:42 10° SW 21:15:52 63° NW 21:21:53 10° NNE visible
29 Apr - 22:59:16 10° WNW 23:03:26 18° NNW 23:07:33 10° NNE visible
30 Apr - 02:38:16 10° N 02:41:42 15° NNE 02:45:07 10° ENE visible
30 Apr - 04:23:51 10° NNW 04:29:35 49° NE 04:35:12 10° SE daylight
30 Apr - 06:10:34 10° NW 06:15:42 32° WSW 06:20:47 10° S daylight
30 Apr - 19:33:20 10° S 19:39:00 38° ESE 19:44:35 10° NE visible
30 Apr - 21:19:21 10° WSW 21:25:18 46° NW 21:31:07 10° NNE visible
30 Apr - 23:09:48 10° WNW 23:13:14 15° NNW 23:16:38 10° N visible
